This demonstration page uses our WeatherBlox Daily Observations layout. Learn more.

Left ArrowRight Arrow

41.12389, -100.76542

Hourly Observations for March 11, 2018

Temp ( °F °C ) Dew Point ( °F °C ) Humidity (%) Winds ( mph kmh ) Pressure ( in mb ) Visibility ( mi km ) Precip ( " mm )
12:53 am 00:53 Clear 26 -3.3 19 -7.2 75 75 NW 13 20 30.24 1024 10 16 0.00 0.00
1:53 am 01:53 Cloudy 28 -2.2 19 -7.2 69 69 NNW 14 22 30.25 1025 10 16 0.00 0.00
3:53 am 03:53 Clear 26 -3.3 19 -7.2 75 75 NNW 12 19 30.26 1025 10 16 0.00 0.00
4:53 am 04:53 Mostly Cloudy 26 -3.3 19 -7.2 75 75 NW 7 11 30.27 1025 10 16 0.00 0.00
5:53 am 05:53 Cloudy 27 -2.8 19 -7.2 72 72 NNW 9 15 30.30 1026 10 16 0.00 0.00
6:49 am 06:49 Cloudy 27 -3 21 -6 80 80 N 17 28 30.42 1030 10 16 0.00 0.00
6:53 am 06:53 Cloudy 27 -2.8 21 -6.1 78 78 NNW 16 26 30.32 1027 10 16 0.00 0.00
7:53 am 07:53 Cloudy 28 -2.2 21 -6.1 75 75 NNW 18 30 30.36 1028 10 16 0.00 0.00
8:53 am 08:53 Cloudy 29 -1.7 22 -5.6 75 75 N 13 20 30.38 1029 10 16 0.00 0.00
9:53 am 09:53 Cloudy 29 -1.7 23 -5 78 78 N 17 28 30.40 1029 10 16 0.00 0.00
10:53 am 10:53 Cloudy 30 -1.1 23 -5 75 75 N 13 20 30.41 1030 10 16 0.00 0.00
11:53 am 11:53 Cloudy 32 0 23 -5 69 69 NNW 15 24 30.42 1030 10 16 0.00 0.00
12:53 pm 12:53 Partly Cloudy 37 2.8 24 -4.4 59 59 N 12 19 30.41 1030 10 16 0.00 0.00
1:53 pm 13:53 Sunny 43 6.1 24 -4.4 47 47 N 9 15 30.39 1029 10 16 0.00 0.00
2:53 pm 14:53 Sunny 46 7.8 24 -4.4 42 42 NNW 9 15 30.36 1028 10 16 0.00 0.00
3:53 pm 15:53 Sunny 49 9.4 20 -6.7 32 32 N 13 20 30.34 1027 10 16 0.00 0.00
4:53 pm 16:53 Sunny 49 9.4 17 -8.3 28 28 N 10 17 30.35 1028 10 16 0.00 0.00
5:53 pm 17:53 Sunny 48 8.9 18 -7.8 30 30 N 9 15 30.36 1028 10 16 0.00 0.00
6:53 pm 18:53 Sunny 46 7.8 16 -8.9 30 30 NNE 9 15 30.37 1029 10 16 0.00 0.00
7:53 pm 19:53 Clear 36 2.2 16 -8.9 44 44 NNE 8 13 30.40 1030 10 16 0.00 0.00
8:53 pm 20:53 Clear 32 0 15 -9.4 50 50 NE 7 11 30.43 1030 10 16 0.00 0.00
9:53 pm 21:53 Clear 30 -1.1 16 -8.9 56 56 Calm 30.45 1031 10 16 0.00 0.00
10:53 pm 22:53 Clear 26 -3.3 15 -9.4 63 63 Calm 30.47 1032 10 16 0.00 0.00
11:53 pm 23:53 Clear 22 -5.6 15 -9.4 75 75 Calm 30.48 1032 10 16 0.00 0.00

Powered by AerisWeather